GW5115 Weather Reports


time (UTC)temp
C
wind
direction
speed
KPH
gust
KPH
rain 1hr
cm
rain 24hr
cm
rain mn
cm
humidity
%
barometer
mb
20260502183413 12 320 9.7 12.9 0.00 0.00 0.00 45 1017.5
20260502182908 12 298 6.4 9.7 0.00 0.00 0.00 48 1017.5
20260502182404 11 320 8.0 24.1 0.00 0.00 0.00 46 1017.5
20260502181900 12 348 6.4 17.7 0.00 0.00 0.00 42 1017.7
20260502181359 11 19 8.0 14.5 0.00 0.00 0.00 46 1017.5
20260502180856 11 33 8.0 20.9 0.00 0.00 0.00 45 1017.9
20260502180353 11 54 6.4 17.7 0.00 0.00 0.00 44 1017.8
20260502170312 12 328 17.7 24.1 0.00 0.00 0.00 41 1018.2
20260502164300 12 335 11.3 17.7 0.00 0.00 0.00 42 1017.8
20260502163755 12 316 6.4 14.5 0.00 0.00 0.00 40 1017.9
20260502163252 12 41 11.3 16.1 0.00 0.00 0.00 43 1018.2
20260502162749 11 310 14.5 17.7 0.00 0.00 0.00 42 1018.0
20260502162246 11 27 14.5 24.1 0.00 0.00 0.00 42 1018.3
20260502161743 10 348 17.7 22.5 0.00 0.00 0.00 41 1018.2
20260502161239 10 71 9.7 25.7 0.00 0.00 0.00 41 1018.3
20260502160737 10 322 8.0 22.5 0.00 0.00 0.00 44 1018.2
20260502160237 11 307 14.5 17.7 0.00 0.00 0.00 44 1018.2
20260502152206 11 30 8.0 16.1 0.00 0.00 0.00 51 1018.5
20260502151703 10 348 11.3 17.7 0.00 0.00 0.00 51 1018.5
20260502151200 10 325 6.4 11.3 0.00 0.00 0.00 52 1018.6
20260502150657 10 325 8.0 9.7 0.00 0.00 0.00 51 1018.4
20260502150154 10 341 9.7 16.1 0.00 0.00 0.00 50 1018.6
20260502140117 10 30 9.7 14.5 0.00 0.00 0.00 61 1018.6
20260502130542 8 45 0.0 0.0 0.00 0.00 0.00 81 1018.7
20260502123525 5 94 0.0 0.0 0.00 0.00 0.00 99 1018.6
20260502123022 4 94 0.0 0.0 0.00 0.00 0.00 99 1018.5
20260502122519 3 94 0.0 0.0 0.00 0.00 0.00 99 1019.0
20260502122016 4 94 0.0 0.0 0.00 0.00 0.00 99 1019.2
20260502121514 4 94 0.0 0.0 0.00 0.00 0.00 99 1019.4
20260502121011 3 94 0.0 0.0 0.00 0.00 0.00 99 1019.2
20260502120507 3 94 0.0 0.0 0.00 0.00 0.00 99 1019.3
20260502115501 1 92 0.0 0.0 0.00 0.00 0.00 99 1019.1
20260502114957 1 90 0.0 0.0 0.00 0.00 0.00 99 1018.8
20260502114454 1 87 0.0 0.0 0.00 0.00 0.00 99 1018.9
20260502113951 1 87 0.0 0.0 0.00 0.00 0.00 99 1018.7
20260502113449 2 87 0.0 0.0 0.00 0.00 0.00 99 1018.6
20260502112947 0 87 0.0 0.0 0.00 0.00 0.00 99 1018.6
20260502112445 0 87 0.0 0.0 0.00 0.00 0.00 99 1018.4
20260502111942 0 83 0.0 0.0 0.00 0.00 0.00 99 1018.3
20260502111439 0 83 0.0 0.0 0.00 0.00 0.00 99 1018.3
20260502110936 0 83 0.0 0.0 0.00 0.00 0.00 99 1018.2
20260502110434 0 83 0.0 0.0 0.00 0.00 0.00 99 1018.4
20260502105931 0 83 0.0 0.0 0.00 0.00 0.00 99 1018.3
20260502105428 0 83 0.0 0.0 0.00 0.00 0.00 99 1018.2
20260502104926 0 83 0.0 0.0 0.00 0.00 0.00 99 1018.0
20260502104423 0 83 0.0 0.0 0.00 0.00 0.00 99 1018.0
20260502103920 0 83 0.0 0.0 0.00 0.00 0.00 99 1018.4
20260502103418 0 83 0.0 0.0 0.00 0.00 0.00 99 1018.4
20260502102915 0 83 0.0 0.0 0.00 0.00 0.00 99 1018.5
20260502102411 0 83 0.0 0.0 0.00 0.00 0.00 99 1018.6
20260502101909 0 83 0.0 0.0 0.00 0.00 0.00 99 1018.5
20260502101407 0 83 0.0 0.0 0.00 0.00 0.00 99 1018.5
20260502100905 0 83 0.0 0.0 0.00 0.00 0.00 99 1018.5
20260502100404 0 83 0.0 0.0 0.00 0.00 0.00 99 1018.5
20260502091337 0 83 0.0 0.0 0.00 0.00 0.00 99 1018.4
20260502090835 0 83 0.0 0.0 0.00 0.00 0.00 99 1018.5
20260502090332 0 83 0.0 0.0 0.00 0.00 0.00 99 1018.6
20260502071227 0 83 0.0 0.0 0.00 0.00 0.00 99 1018.2
20260502070725 0 83 0.0 0.0 0.00 0.00 0.00 99 1018.2
20260502070223 0 83 0.0 0.0 0.00 0.00 0.00 99 1018.3
20260502065721 0 83 0.0 0.0 0.00 0.00 0.00 99 1018.1
20260502065218 0 83 0.0 0.0 0.00 0.00 0.00 99 1018.0
20260502064717 0 83 0.0 0.0 0.00 0.00 0.00 99 1018.3
20260502064214 0 83 0.0 0.0 0.00 0.00 0.00 99 1018.2
20260502063711 0 83 0.0 0.0 0.00 0.00 0.00 99 1018.5
20260502063209 1 83 0.0 0.0 0.00 0.00 0.00 99 1018.5
20260502062706 0 83 0.0 0.0 0.00 0.00 0.00 99 1018.7
20260502062203 0 83 0.0 0.0 0.00 0.00 0.00 99 1018.6
20260502061702 1 83 0.0 0.0 0.00 0.00 0.00 99 1018.8
20260502061159 0 83 0.0 0.0 0.00 0.00 0.00 99 1018.8
20260502060654 1 83 0.0 0.0 0.00 0.00 0.00 99 1018.6
20260502060151 1 83 0.0 0.0 0.00 0.00 0.00 99 1018.7
20260502055648 1 83 0.0 0.0 0.00 0.00 0.00 99 1018.8
20260502055146 1 83 0.0 0.0 0.00 0.00 0.00 99 1019.0
20260502054645 1 83 0.0 0.0 0.00 0.00 0.00 99 1018.8
20260502054142 1 83 0.0 0.0 0.00 0.00 0.00 99 1019.0
20260502053639 1 83 0.0 1.6 0.00 0.00 0.00 99 1019.0
20260502053136 1 83 0.0 0.0 0.00 0.00 0.00 99 1019.0
20260502052635 1 83 0.0 0.0 0.00 0.00 0.00 99 1019.0
20260502052132 1 83 0.0 0.0 0.00 0.00 0.00 99 1018.8
20260502051630 2 83 0.0 0.0 0.00 0.00 0.00 99 1018.9
20260502051128 1 83 1.6 1.6 0.00 0.00 0.00 99 1019.0
20260502050624 1 52 0.0 0.0 0.00 0.00 0.00 99 1018.9
20260502050121 2 52 0.0 0.0 0.00 0.00 0.00 99 1019.0
20260502045617 2 52 0.0 0.0 0.00 0.00 0.00 99 1018.9
20260502045115 2 52 0.0 0.0 0.00 0.00 0.00 99 1019.2
20260502044611 2 52 0.0 0.0 0.00 0.00 0.00 99 1019.1
20260502044108 2 52 0.0 0.0 0.00 0.00 0.00 99 1019.2
20260502043606 2 52 0.0 0.0 0.00 0.00 0.00 99 1019.1
20260502043102 2 52 0.0 0.0 0.00 0.00 0.00 99 1019.0
20260502042556 2 52 0.0 0.0 0.00 0.00 0.00 99 1019.1
20260502042054 2 52 0.0 0.0 0.00 0.00 0.00 98 1018.9
20260502041552 2 52 0.0 0.0 0.00 0.00 0.00 98 1018.9
20260502041048 3 52 0.0 0.0 0.00 0.00 0.00 98 1019.1
20260502040545 3 52 0.0 0.0 0.00 0.00 0.00 98 1019.1
20260502040042 3 52 0.0 0.0 0.00 0.00 0.00 97 1019.0
20260502035538 3 52 0.0 0.0 0.00 0.00 0.00 97 1019.0
20260502035036 3 52 0.0 0.0 0.00 0.00 0.00 97 1018.9
20260502034534 3 52 0.0 0.0 0.00 0.00 0.00 96 1018.9
20260502034032 3 52 0.0 0.0 0.00 0.00 0.00 96 1019.0
20260502033530 3 52 0.0 0.0 0.00 0.00 0.00 96 1018.8
20260502033027 4 52 0.0 0.0 0.00 0.00 0.00 95 1019.0
20260502032522 4 52 0.0 0.0 0.00 0.00 0.00 95 1018.7
20260502032020 4 52 0.0 0.0 0.00 0.00 0.00 95 1018.9
20260502031517 4 51 0.0 0.0 0.00 0.00 0.00 93 1018.9
20260502031015 4 51 0.0 0.0 0.00 0.00 0.00 92 1018.9
20260502030514 5 51 0.0 0.0 0.00 0.00 0.00 90 1018.9
20260502030011 5 51 0.0 0.0 0.00 0.00 0.00 90 1018.9
20260502025508 5 51 0.0 0.0 0.00 0.00 0.00 90 1018.9
20260502025006 5 51 0.0 0.0 0.00 0.00 0.00 88 1018.8
20260502024503 6 51 0.0 0.0 0.00 0.00 0.00 85 1018.9
20260502024002 7 51 0.0 0.0 0.00 0.00 0.00 82 1018.9
20260502023459 7 51 0.0 0.0 0.00 0.00 0.00 80 1018.8
20260502022956 7 52 1.6 1.6 0.00 0.00 0.00 79 1018.6
20260502022453 7 52 1.6 3.2 0.00 0.00 0.00 77 1018.5
20260502021950 8 57 3.2 3.2 0.00 0.00 0.00 75 1018.3
20260502021447 8 74 1.6 3.2 0.00 0.00 0.00 73 1018.2
20260502020944 8 77 1.6 4.8 0.00 0.00 0.00 71 1018.2
20260502020442 8 53 1.6 1.6 0.00 0.00 0.00 71 1018.2
20260502015938 9 51 1.6 4.8 0.00 0.00 0.00 70 1018.1
20260502015436 9 56 4.8 6.4 0.00 0.00 0.00 70 1018.3
20260502014933 9 26 1.6 3.2 0.00 0.00 0.00 69 1018.1
20260502014430 9 50 3.2 4.8 0.00 0.00 0.00 68 1018.1
20260502013926 9 52 4.8 6.4 0.00 0.00 0.00 68 1017.8
20260502013422 9 25 6.4 11.3 0.00 0.00 0.00 68 1017.8
20260502012918 9 17 3.2 11.3 0.00 0.00 0.00 68 1017.9
20260502012416 9 40 8.0 17.7 0.00 0.00 0.00 67 1017.8
20260502011914 10 37 9.7 16.1 0.00 0.00 0.00 66 1017.5
20260502011410 10 26 6.4 16.1 0.00 0.00 0.00 67 1017.4
20260502010907 10 13 4.8 9.7 0.00 0.00 0.00 67 1017.3
20260502010403 10 32 6.4 12.9 0.00 0.00 0.00 65 1017.1
20260502005900 10 5 9.7 14.5 0.00 0.00 0.00 64 1017.0
20260502005358 10 57 6.4 17.7 0.00 0.00 0.00 65 1016.9
20260502004855 10 12 8.0 17.7 0.00 0.00 0.00 65 1016.8
20260502004351 10 69 4.8 14.5 0.00 0.00 0.00 65 1016.6
20260502003849 10 12 8.0 16.1 0.00 0.00 0.00 65 1016.4
20260502003346 10 51 6.4 9.7 0.00 0.00 0.00 67 1016.7
20260502002842 11 18 3.2 11.3 0.00 0.00 0.00 70 1016.4
20260502002339 11 48 16.1 22.5 0.00 0.00 0.00 70 1016.3
20260502001836 10 29 6.4 9.7 0.00 0.00 0.00 74 1016.3
20260502001334 10 20 3.2 3.2 0.00 0.00 0.00 78 1016.1
20260502000831 10 354 1.6 3.2 0.00 0.00 0.00 79 1016.2
20260502000332 10 16 0.0 0.0 0.00 0.00 0.00 79 1015.9
20260501235825 10 18 0.0 0.0 0.00 0.00 0.00 77 1015.5
20260501235321 10 349 1.6 3.2 0.00 0.00 0.00 77 1015.4
20260501234817 10 312 0.0 0.0 0.00 0.00 0.00 76 1015.5
20260501234314 10 301 0.0 0.0 0.00 0.00 0.00 76 1015.3
20260501233813 11 288 0.0 3.2 0.00 0.00 0.00 76 1015.3
20260501233309 11 14 3.2 4.8 0.00 0.00 0.00 74 1015.2
20260501232805 11 348 0.0 0.0 0.00 0.00 0.00 74 1015.1
20260501232305 11 348 1.6 1.6 0.00 0.00 0.00 73 1015.2
20260501231800 11 13 0.0 0.0 0.00 0.00 0.00 72 1015.3
20260501231258 11 33 0.0 0.0 0.00 0.00 0.00 76 1015.0
20260501230756 11 53 0.0 0.0 0.00 0.00 0.00 75 1015.2
20260501230254 11 53 3.2 3.2 0.00 0.00 0.00 74 1015.3
20260501225751 11 21 1.6 6.4 0.00 0.00 0.00 73 1015.3
20260501225249 11 13 3.2 6.4 0.00 0.00 0.00 74 1015.1
20260501224744 11 17 0.0 4.8 0.00 0.00 0.00 74 1015.1
20260501224242 11 26 3.2 3.2 0.00 0.00 0.00 75 1015.3
20260501223738 11 44 3.2 6.4 0.00 0.00 0.00 74 1015.1
20260501223235 11 53 4.8 9.7 0.00 0.00 0.00 73 1015.1
20260501222731 11 326 4.8 4.8 0.00 0.00 0.00 74 1015.4
20260501222228 11 39 0.0 9.7 0.00 0.00 0.00 74 1015.1
20260501221725 11 38 4.8 11.3 0.00 0.00 0.00 71 1015.1
20260501221222 11 25 6.4 9.7 0.00 0.00 0.00 70 1015.1
20260501220720 11 6 6.4 11.3 0.00 0.00 0.00 69 1015.2
20260501220217 11 29 9.7 12.9 0.00 0.00 0.00 67 1015.1
20260501215709 11 60 8.0 12.9 0.00 0.00 0.00 67 1015.1
20260501215204 12 316 9.7 12.9 0.00 0.00 0.00 67 1015.0
20260501214659 12 340 16.1 17.7 0.00 0.00 0.00 65 1015.0
20260501214155 12 313 12.9 17.7 0.00 0.00 0.00 66 1015.0
20260501213652 12 7 8.0 24.1 0.00 0.00 0.00 64 1014.6
20260501213148 12 36 12.9 17.7 0.00 0.00 0.00 65 1014.7
20260501212645 12 46 12.9 17.7 0.00 0.00 0.00 65 1014.7
20260501212141 12 357 8.0 14.5 0.00 0.00 0.00 68 1014.8
20260501211638 12 21 12.9 16.1 0.00 0.00 0.00 68 1014.6
20260501211136 12 59 8.0 17.7 0.00 0.00 0.00 70 1014.5
20260501210632 13 16 17.7 29.0 0.00 0.00 0.00 69 1014.5
20260501210129 13 60 9.7 25.7 0.00 0.00 0.00 71 1014.5
20260501205625 13 343 12.9 16.1 0.00 0.00 0.00 72 1014.6
20260501205123 13 20 16.1 24.1 0.00 0.00 0.00 71 1014.4
20260501204619 13 3 8.0 16.1 0.00 0.00 0.00 69 1014.6
20260501204115 13 355 9.7 14.5 0.00 0.00 0.00 71 1014.3
20260501203612 13 333 12.9 20.9 0.00 0.00 0.00 69 1014.3
20260501203109 13 333 12.9 20.9 0.00 0.00 0.00 69 1014.4
20260501202607 13 341 14.5 20.9 0.00 0.00 0.00 70 1014.3
20260501202103 13 33 6.4 16.1 0.00 0.00 0.00 70 1014.3
20260501201600 13 11 11.3 17.7 0.00 0.00 0.00 68 1014.4
20260501201056 13 21 6.4 17.7 0.00 0.00 0.00 67 1014.2
20260501200554 13 43 17.7 25.7 0.00 0.00 0.00 68 1014.1
20260501200051 13 38 16.1 22.5 0.00 0.00 0.00 66 1014.0
20260501195549 14 27 17.7 25.7 0.00 0.00 0.00 63 1013.8
20260501195044 15 23 8.0 16.1 0.00 0.00 0.00 59 1013.8
20260501194539 15 354 6.4 9.7 0.00 0.00 0.00 56 1013.8
20260501194035 15 312 11.3 24.1 0.00 0.00 0.00 56 1013.6
20260501193533 15 21 19.3 25.7 0.00 0.00 0.00 53 1013.6
20260501193032 16 32 11.3 22.5 0.00 0.00 0.00 51 1013.6
20260501192528 16 53 4.8 11.3 0.00 0.00 0.00 48 1013.6
20260501192026 16 355 6.4 20.9 0.00 0.00 0.00 44 1013.6
20260501191522 16 315 8.0 22.5 0.00 0.00 0.00 44 1013.6
20260501191020 16 280 12.9 24.1 0.00 0.00 0.00 43 1013.4
20260501190515 16 313 4.8 11.3 0.00 0.00 0.00 42 1013.3
20260501190012 17 305 9.7 17.7 0.00 0.00 0.00 43 1013.3
20260501185507 17 32 1.6 11.3 0.00 0.00 0.00 42 1013.2
20260501185003 17 280 9.7 11.3 0.00 0.00 0.00 41 1013.2
20260501184500 17 268 3.2 27.4 0.00 0.00 0.00 44 1013.3
20260501183959 18 190 9.7 12.9 0.00 0.00 0.00 39 1013.2